Location: Holyhead Bay
(53.3667°N, 4.6667°W)
Time: 23:15:20
(UTC+00:00)

Cosmos 1408 Rocket - Pass Details

Date: 19 April 2021
Orbit: 601 x 631 km, 82.6° (Epoch: 16 May)

Event Time Altitude Azimuth Distance (km) Brightness Sun altitude
Rises 20:37:26 0° 359° (N) 2,867 7.5 -10.1°
Reaches altitude 10° 20:40:25 10° 21° (NNE) 1,960 6.3 -10.5°
Maximum altitude 20:43:09 16° 61° (ENE) 1,586 5.4 -10.8°
Enters shadow 20:45:29 11° 96° (E) 1,861 5.5 -11.1°
